[[{"header":{"parameterUnit":"m.s-1","parameterCategory":1,"la1":30.2991,"la2":30.254,"lo1":-89.0895,"lo2":-89.0444,"dx":0.0017,"dy":0.0017,"nx":28,"ny":28,"refTime":"2022-11-16T03:00:00:Z","depth":0,"parameterNumber":2,"parameterNumberName":"U-component_of_WINDS"},"data":[0,0,0,0,0,0,0,0,0,0,0,0,0,0,0,0,0,0,0,0,0,0,0,0,0,0,0,0,0,0,0,0,0,0,0,0,0,0,0,0,0,0,0,0,0,0,0,0,0,0,0,0,0,0,0,0,0,0,0.6494,0.6494,0,0.6467,0.6467,0.6467,0.6459,0.646,0.646,0.646,0.6431,0.643,0.6429,0,0,0,0,0,0,0,0,0,0,0,0,0,0.6539,0.6539,0.6494,0.6494,0.6494,0.6467,0.6467,0.6467,0.6459,0.646,0.646,0.646,0.6431,0.643,0.6429,0,0,0,0,0,0,0,0,0,0,0,0,0,0.6517,0.6538,0.6494,0.6487,0.6486,0.6467,0.6467,0.6466,0.6459,0.646,0.646,0.646,0.6431,0.643,0.6429,0.6415,0,0,0.6424,0.6424,0,0,0,0,0,0,0,0,0.6518,0.6515,0.6488,0.6488,0.6486,0.6467,0.6472,0.6449,0.6459,0.6469,0.646,0.646,0.6442,0.644,0.6434,0.6413,0.6412,0.6424,0.6423,0.6423,0.6422,0,0,0,0,0,0,0,0.652,0.6516,0.6484,0.6488,0.6487,0.6485,0.6482,0.6468,0.6455,0.6469,0.6468,0.6465,0.6442,0.6436,0.6434,0.6412,0.6424,0.6423,0.6422,0.6421,0.6379,0.6379,0,0,0,0,0,0,0.6523,0.6518,0.6484,0.6483,0.6503,0.6484,0.6481,0.6473,0.6455,0.6452,0.6465,0.6465,0.6438,0.6435,0.6433,0.6416,0.6423,0.6421,0.642,0.6379,0.6379,0.6378,0,0,0,0,0,0,0.6524,0.652,0.6486,0.65,0.6496,0.6483,0.6474,0.6472,0.6466,0.6452,0.645,0.6461,0.6438,0.6435,0.642,0.6414,0.6421,0.6419,0.6379,0.6379,0.6379,0.6381,0,0,0,0,0,0,0.6525,0.652,0.6515,0.65,0.6495,0.6473,0.6474,0.6472,0.6464,0.6464,0.6448,0.6445,0.6438,0.6422,0.6418,0.6413,0.6418,0.638,0.6379,0.6379,0.6382,0.6381,0.6381,0,0,0,0,0,0.6527,0.6516,0.6515,0.6511,0.6488,0.6473,0.647,0.6462,0.6464,0.6458,0.6449,0.6446,0.6416,0.642,0.6416,0.641,0.638,0.6379,0.6379,0.6382,0.6381,0.6381,0,0,0,0,0,0,0.653,0.6514,0.6512,0.6497,0.6486,0.6472,0.6464,0.6461,0.645,0.645,0.644,0.6437,0.6423,0.6415,0.642,0.6396,0.6398,0.6396,0.6402,0.6401,0.64,0.6402,0.6417,0,0,0,0,0,0.6529,0.6518,0.6505,0.6493,0.6488,0.6477,0.647,0.6465,0.6454,0.6449,0.6439,0.6428,0.6416,0.6408,0.6396,0.6381,0.6377,0.6375,0.6374,0.6374,0.6373,0.6364,0.6363,0.6376,0.6376,0.6376,0,0,0.6527,0.6517,0.651,0.6493,0.6484,0.6474,0.6473,0.6461,0.6453,0.6447,0.6432,0.6425,0.6412,0.6397,0.639,0.639,0.6368,0.6373,0.6373,0.6372,0.6364,0.6362,0.6361,0.6376,0.6376,0.6376,0,0,0.6517,0.6508,0.6497,0.6489,0.6476,0.6469,0.6467,0.6453,0.6448,0.6433,0.6429,0.6419,0.6398,0.6389,0.6382,0.637,0.6367,0.6367,0.6364,0.6356,0.6355,0.6354,0.635,0.6348,0.6366,0.6366,0.6366,0,0.6515,0.6499,0.6492,0.6481,0.6473,0.6468,0.6457,0.6449,0.6433,0.6428,0.6429,0.6404,0.6395,0.6378,0.6375,0.6369,0.6366,0.6368,0.6356,0.6355,0.6354,0.635,0.6348,0.6366,0.6366,0.6366,0.6366,0,0.6498,0.6486,0.6479,0.6465,0.6456,0.6445,0.6437,0.6429,0.6425,0.6419,0.6404,0.6393,0.6379,0.6375,0.6371,0.6358,0.6358,0.6358,0.6359,0.6353,0.6349,0.6347,0.6366,0.6366,0.6366,0.6366,0,0,0.6488,0.6471,0.6468,0.6462,0.6448,0.6439,0.6428,0.6415,0.6409,0.6398,0.6389,0.6372,0.6372,0.6364,0.6359,0.6352,0.6344,0.6352,0.6352,0.6351,0.6329,0.6329,0.6327,0.6342,0.6341,0.6341,0.633,0,0.6476,0.6456,0.645,0.6434,0.6423,0.6419,0.641,0.64,0.6394,0.6384,0.6377,0.6366,0.6366,0.6361,0.6354,0.6346,0.6339,0.6347,0.6332,0.6332,0.6335,0.6325,0.6325,0.6315,0.6328,0.6328,0.6328,0,0.6459,0.6449,0.6432,0.642,0.6416,0.6407,0.6395,0.6386,0.6376,0.6372,0.6363,0.6359,0.6347,0.635,0.6334,0.6339,0.6333,0.6329,0.6328,0.6326,0.6329,0.6322,0.6311,0.631,0.6325,0.6325,0.6326,0,0.6453,0.6436,0.6423,0.6418,0.6404,0.6398,0.6392,0.6382,0.6375,0.6365,0.636,0.6349,0.6342,0.6333,0.6326,0.6329,0.6311,0.6313,0.6307,0.6307,0.6302,0.6302,0.629,0.6299,0.6299,0.6299,0.6299,0,0.644,0.643,0.642,0.6413,0.6401,0.6394,0.6383,0.6377,0.6368,0.6359,0.6355,0.6346,0.6337,0.6328,0.6322,0.631,0.6307,0.6303,0.6302,0.6303,0.6304,0.6298,0.6299,0.6299,0.6299,0.6299,0.6299,0,0.6432,0.6425,0.6411,0.64,0.6397,0.6388,0.6379,0.6371,0.6365,0.6354,0.6351,0.6341,0.633,0.6322,0.6307,0.6304,0.629,0.6289,0.6294,0.6293,0.6287,0.6288,0.627,0.6268,0.6279,0.6279,0.6279,0,0.6423,0.6415,0.6404,0.6397,0.6392,0.6382,0.6375,0.6369,0.6362,0.635,0.6344,0.6332,0.6323,0.6305,0.6296,0.6285,0.6284,0.6278,0.6282,0.6284,0.6283,0.6284,0.6283,0.6277,0.6277,0.6277,0.6277,0,0.641,0.6407,0.6398,0.6387,0.638,0.6371,0.6362,0.6358,0.635,0.6342,0.6331,0.6324,0.6309,0.6298,0.6286,0.628,0.6277,0.6276,0.6274,0.6275,0.6278,0.6277,0.6292,0.6277,0.6277,0.6277,0.6277,0.6277,0.6401,0.6393,0.6384,0.6374,0.6367,0.636,0.6352,0.6346,0.6337,0.6325,0.6322,0.631,0.63,0.6285,0.6278,0.6269,0.6269,0.6267,0.6266,0.6265,0.6265,0.6281,0.6267,0.6267,0.6267,0.6267,0.6267,0,0.6386,0.6381,0.6371,0.636,0.6352,0.6351,0.6342,0.6336,0.6325,0.6317,0.6308,0.6296,0.6285,0.6277,0.6266,0.626,0.6258,0.6257,0.6257,0.6256,0.6265,0.6268,0.6259,0.6259,0.6259,0.6259,0.6259,0.6259,0.6378,0.6366,0.6363,0.6347,0.6342,0.6331,0.6325,0.6318,0.6312,0.6298,0.629,0.6285,0.6276,0.6265,0.6255,0.6253,0.6249,0.6248,0.6246,0.6254,0.6255,0.6256,0.6258,0.6247,0.6247,0.6237,0.6237,0.6237]},{"header":{"parameterUnit":"m.s-1","parameterCategory":1,"la1":30.2991,"la2":30.254,"lo1":-89.0895,"lo2":-89.0444,"dx":0.0017,"dy":0.0017,"nx":28,"ny":28,"refTime":"2022-11-16T03:00:00:Z","depth":0,"parameterNumber":3,"parameterNumberName":"V-component_of_WINDS"},"data":[0,0,0,0,0,0,0,0,0,0,0,0,0,0,0,0,0,0,0,0,0,0,0,0,0,0,0,0,0,0,0,0,0,0,0,0,0,0,0,0,0,0,0,0,0,0,0,0,0,0,0,0,0,0,0,0,0,0,-5.5132,-5.5133,0,-5.5241,-5.5243,-5.5244,-5.5169,-5.5166,-5.5162,-5.5159,-5.5267,-5.5273,-5.5279,0,0,0,0,0,0,0,0,0,0,0,0,0,-5.4853,-5.4859,-5.5132,-5.5133,-5.5135,-5.5241,-5.5243,-5.5244,-5.517,-5.5166,-5.5162,-5.5158,-5.5265,-5.5272,-5.5279,0,0,0,0,0,0,0,0,0,0,0,0,0,-5.497,-5.4861,-5.5132,-5.5111,-5.511,-5.5241,-5.5243,-5.5245,-5.5171,-5.5166,-5.516,-5.5156,-5.5263,-5.5271,-5.528,-5.5437,0,0,-5.5308,-5.5312,0,0,0,0,0,0,0,0,-5.4963,-5.498,-5.5112,-5.5112,-5.5112,-5.5187,-5.5184,-5.5309,-5.5172,-5.5147,-5.5159,-5.5153,-5.5244,-5.5254,-5.5286,-5.5442,-5.5447,-5.5309,-5.5314,-5.5318,-5.532,0,0,0,0,0,0,0,-5.4955,-5.4975,-5.5175,-5.5114,-5.5114,-5.5094,-5.5105,-5.5207,-5.5223,-5.5149,-5.5144,-5.5158,-5.5243,-5.5277,-5.5288,-5.5448,-5.5308,-5.5316,-5.5322,-5.5325,-5.5736,-5.5741,0,0,0,0,0,0,-5.495,-5.4969,-5.5172,-5.5178,-5.5024,-5.5103,-5.5115,-5.5168,-5.5221,-5.5225,-5.5162,-5.5154,-5.5264,-5.5277,-5.5291,-5.5476,-5.5318,-5.5326,-5.5331,-5.573,-5.5737,-5.5743,0,0,0,0,0,0,-5.4944,-5.4969,-5.5167,-5.5072,-5.5096,-5.5113,-5.5173,-5.5172,-5.5207,-5.5231,-5.5233,-5.5195,-5.5261,-5.5278,-5.5401,-5.5479,-5.533,-5.5339,-5.5724,-5.5732,-5.574,-5.585,0,0,0,0,0,0,-5.4936,-5.4967,-5.5028,-5.5074,-5.5101,-5.5278,-5.5177,-5.5178,-5.5223,-5.5213,-5.5263,-5.5266,-5.5258,-5.5388,-5.541,-5.5489,-5.5346,-5.5717,-5.5727,-5.5737,-5.5839,-5.5861,-5.5879,0,0,0,0,0,-5.4927,-5.5054,-5.5032,-5.5057,-5.5179,-5.5282,-5.5297,-5.5287,-5.523,-5.529,-5.5306,-5.5264,-5.5467,-5.5401,-5.5425,-5.5508,-5.5712,-5.5724,-5.5736,-5.583,-5.5856,-5.5879,0,0,0,0,0,0,-5.5016,-5.506,-5.5035,-5.5182,-5.5229,-5.5269,-5.5346,-5.5316,-5.5379,-5.5367,-5.5351,-5.5362,-5.549,-5.5511,-5.5437,-5.5661,-5.558,-5.5598,-5.5643,-5.5668,-5.5688,-5.568,-5.5353,0,0,0,0,0,-5.5053,-5.5135,-5.5169,-5.5295,-5.532,-5.5329,-5.5374,-5.5362,-5.5409,-5.5428,-5.5452,-5.5499,-5.5572,-5.5621,-5.5691,-5.5842,-5.585,-5.591,-5.593,-5.5947,-5.5962,-5.6041,-5.6067,-5.5783,-5.5783,-5.5783,0,0,-5.513,-5.5164,-5.5217,-5.5314,-5.5349,-5.5432,-5.5346,-5.5438,-5.5499,-5.5442,-5.5559,-5.5578,-5.5628,-5.5765,-5.5827,-5.5787,-5.6042,-5.5962,-5.5975,-5.5982,-5.6056,-5.6083,-5.6107,-5.5792,-5.579,-5.5789,0,0,-5.5313,-5.5348,-5.5456,-5.5493,-5.5547,-5.5552,-5.5578,-5.5623,-5.5634,-5.5751,-5.5709,-5.578,-5.5909,-5.5945,-5.5981,-5.6176,-5.6139,-5.6199,-5.6303,-5.638,-5.6402,-5.6422,-5.649,-5.6514,-5.6214,-5.6214,-5.6214,0,-5.5402,-5.5527,-5.5515,-5.5611,-5.5653,-5.5606,-5.5713,-5.5749,-5.5823,-5.5852,-5.5807,-5.5965,-5.5996,-5.614,-5.6187,-5.6218,-5.6245,-5.6193,-5.64,-5.642,-5.6438,-5.6502,-5.6528,-5.6221,-5.622,-5.6219,-5.6219,0,-5.5632,-5.572,-5.5801,-5.5874,-5.5925,-5.6027,-5.6028,-5.6081,-5.6064,-5.6073,-5.6192,-5.6227,-5.6302,-5.6335,-5.6319,-5.6476,-5.6449,-5.6403,-5.632,-5.6472,-5.6532,-5.6557,-5.6231,-5.6228,-5.6226,-5.6225,0,0,-5.5876,-5.594,-5.597,-5.6001,-5.6057,-5.6123,-5.6221,-5.6295,-5.634,-5.6392,-5.6472,-5.6581,-5.6538,-5.6578,-5.6566,-5.6634,-5.6783,-5.6578,-5.6579,-5.6614,-5.6956,-5.699,-5.7019,-5.6759,-5.6764,-5.6768,-5.6951,0,-5.606,-5.6233,-5.6224,-5.6385,-5.6464,-5.6419,-5.6503,-5.6545,-5.6556,-5.6623,-5.6634,-5.6711,-5.6649,-5.6672,-5.6738,-5.6751,-5.6851,-5.6738,-5.6832,-5.6835,-5.682,-5.705,-5.7087,-5.7259,-5.6974,-5.6978,-5.6981,0,-5.63,-5.636,-5.6529,-5.6571,-5.6604,-5.668,-5.6746,-5.6812,-5.6858,-5.686,-5.6905,-5.6881,-5.6977,-5.6893,-5.7024,-5.6947,-5.6985,-5.6997,-5.7003,-5.7011,-5.6917,-5.7063,-5.7313,-5.7338,-5.7018,-5.7015,-5.7013,0,-5.6458,-5.6582,-5.6698,-5.6727,-5.6779,-5.6834,-5.6857,-5.6898,-5.6943,-5.7,-5.7028,-5.7095,-5.7132,-5.7183,-5.7177,-5.7117,-5.731,-5.7226,-5.7313,-5.7313,-5.7355,-5.7352,-5.7614,-5.7382,-5.7381,-5.7381,-5.738,0,-5.6665,-5.677,-5.677,-5.6842,-5.6957,-5.6944,-5.7058,-5.7075,-5.7112,-5.7184,-5.7149,-5.7217,-5.7205,-5.7273,-5.7269,-5.7377,-5.7394,-5.7397,-5.7394,-5.74,-5.7399,-5.7424,-5.7411,-5.7387,-5.7386,-5.7385,-5.7383,0,-5.6862,-5.6866,-5.699,-5.7029,-5.7041,-5.7124,-5.7156,-5.7223,-5.723,-5.7322,-5.7342,-5.7353,-5.7431,-5.743,-5.7519,-5.7515,-5.7648,-5.7632,-5.7633,-5.7629,-5.7716,-5.7707,-5.8001,-5.8038,-5.7783,-5.7785,-5.7787,0,-5.6993,-5.7072,-5.712,-5.7166,-5.7194,-5.7269,-5.7314,-5.7304,-5.7352,-5.7409,-5.7468,-5.7543,-5.7602,-5.7728,-5.7742,-5.7809,-5.7794,-5.7892,-5.7804,-5.7806,-5.7794,-5.7789,-5.7795,-5.7909,-5.7912,-5.7914,-5.7916,0,-5.7225,-5.7223,-5.729,-5.7358,-5.7413,-5.7466,-5.7514,-5.7554,-5.7548,-5.7604,-5.7683,-5.7729,-5.7819,-5.7893,-5.7957,-5.7979,-5.7947,-5.7944,-5.7968,-5.7974,-5.797,-5.7972,-5.7679,-5.7937,-5.7935,-5.7934,-5.7933,-5.7932,-5.7392,-5.746,-5.7503,-5.7579,-5.7614,-5.7659,-5.7724,-5.7739,-5.7805,-5.7879,-5.7868,-5.7956,-5.7997,-5.808,-5.8107,-5.8175,-5.814,-5.8174,-5.8183,-5.8191,-5.82,-5.796,-5.8186,-5.8186,-5.8185,-5.8185,-5.8184,0,-5.7621,-5.7646,-5.7716,-5.7785,-5.7843,-5.7809,-5.786,-5.7911,-5.7989,-5.8031,-5.809,-5.818,-5.8251,-5.827,-5.8338,-5.8388,-5.8375,-5.8406,-5.8402,-5.8407,-5.8228,-5.8201,-5.8416,-5.8416,-5.8416,-5.8416,-5.8415,-5.8415,-5.7747,-5.7859,-5.7862,-5.799,-5.8014,-5.8102,-5.8133,-5.8174,-5.8207,-5.831,-5.8369,-5.8382,-5.8414,-5.8483,-5.8546,-5.8549,-5.8575,-5.8613,-5.861,-5.8443,-5.842,-5.8398,-5.8371,-5.8619,-5.8619,-5.8783,-5.8785,-5.8786]}]]